Time,TemperatureF,DewpointF,PressureIn,WindDirection,WindDirectionDegrees,WindSpeedMPH,WindSpeedGustMPH,Humidity,HourlyPrecipIn,Conditions,Clouds,dailyrainin,SoftwareType,DateUTC
2013-02-02 00:07:00,51.7,35.0,30.24,ENE,71,6.0,-999.0,54,-99.99,,,0.00,weatherlink.com 1.10,2013-02-02 05:07:00,
2013-02-02 00:22:00,51.2,36.0,30.24,ENE,72,5.0,-999.0,57,-99.99,,,0.00,weatherlink.com 1.10,2013-02-02 05:22:00,
2013-02-02 00:37:00,51.0,36.0,30.24,ENE,74,6.0,-999.0,56,-99.99,,,0.00,weatherlink.com 1.10,2013-02-02 05:37:00,
2013-02-02 00:52:00,50.5,36.0,30.24,ENE,63,7.0,-999.0,57,-99.99,,,0.00,weatherlink.com 1.10,2013-02-02 05:52:00,
2013-02-02 01:07:00,50.1,36.0,30.24,ENE,67,6.0,-999.0,59,-99.99,,,0.00,weatherlink.com 1.10,2013-02-02 06:07:00,
2013-02-02 01:23:00,49.6,36.0,30.24,North,355,6.0,-999.0,61,-99.99,,,0.00,weatherlink.com 1.10,2013-02-02 06:23:00,
2013-02-02 01:38:00,49.4,37.0,30.24,East,84,7.0,-999.0,62,-99.99,,,0.00,weatherlink.com 1.10,2013-02-02 06:38:00,
2013-02-02 01:53:00,49.2,36.0,30.24,NE,54,6.0,-999.0,60,-99.99,,,0.00,weatherlink.com 1.10,2013-02-02 06:53:00,
2013-02-02 02:08:00,49.1,36.0,30.23,NE,53,8.0,-999.0,61,-99.99,,,0.00,weatherlink.com 1.10,2013-02-02 07:08:00,
2013-02-02 02:23:00,48.8,35.0,30.23,NE,56,12.0,-999.0,60,-99.99,,,0.00,weatherlink.com 1.10,2013-02-02 07:23:00,
2013-02-02 02:38:00,48.8,36.0,30.22,NE,42,5.0,-999.0,62,-99.99,,,0.00,weatherlink.com 1.10,2013-02-02 07:38:00,
2013-02-02 02:53:00,48.2,36.0,30.23,NE,46,6.0,-999.0,63,-99.99,,,0.00,weatherlink.com 1.10,2013-02-02 07:53:00,
2013-02-02 03:08:00,47.9,36.0,30.23,ENE,71,6.0,-999.0,64,-99.99,,,0.00,weatherlink.com 1.10,2013-02-02 08:08:00,
2013-02-02 03:23:00,47.6,35.0,30.23,ENE,59,5.0,-999.0,63,-99.99,,,0.00,weatherlink.com 1.10,2013-02-02 08:23:00,
2013-02-02 03:38:00,47.2,35.0,30.23,NE,46,6.0,-999.0,64,-99.99,,,0.00,weatherlink.com 1.10,2013-02-02 08:38:00,
2013-02-02 03:53:00,47.1,36.0,30.23,NE,48,8.0,-999.0,66,-99.99,,,0.00,weatherlink.com 1.10,2013-02-02 08:53:00,
2013-02-02 04:08:00,47.0,36.0,30.23,ENE,59,6.0,-999.0,67,-99.99,,,0.00,weatherlink.com 1.10,2013-02-02 09:08:00,
2013-02-02 04:23:00,46.8,37.0,30.23,ENE,58,8.0,-999.0,68,-99.99,,,0.00,weatherlink.com 1.10,2013-02-02 09:23:00,
2013-02-02 04:38:00,46.4,37.0,30.23,NE,39,6.0,-999.0,69,-99.99,,,0.00,weatherlink.com 1.10,2013-02-02 09:38:00,
2013-02-02 04:54:00,46.1,37.0,30.23,ENE,71,5.0,-999.0,70,-99.99,,,0.00,weatherlink.com 1.10,2013-02-02 09:54:00,
2013-02-02 05:08:00,-999.0,-99.9,30.23,North,-999,-999.0,-999.0,-999,-99.99,,,0.00,weatherlink.com 1.10,2013-02-02 10:08:00,
2013-02-02 05:23:00,-999.0,-99.9,30.23,North,-999,-999.0,-999.0,-999,-99.99,,,0.00,weatherlink.com 1.10,2013-02-02 10:23:00,
2013-02-02 05:38:00,-999.0,-99.9,30.23,North,-999,-999.0,-999.0,-999,-99.99,,,0.00,weatherlink.com 1.10,2013-02-02 10:38:00,
2013-02-02 05:53:00,-999.0,-99.9,30.23,North,-999,-999.0,-999.0,-999,-99.99,,,0.00,weatherlink.com 1.10,2013-02-02 10:53:00,
2013-02-02 06:08:00,-999.0,-99.9,30.24,North,-999,-999.0,-999.0,-999,-99.99,,,0.00,weatherlink.com 1.10,2013-02-02 11:08:00,
2013-02-02 06:23:00,-999.0,-99.9,30.24,North,-999,-999.0,-999.0,-999,-99.99,,,0.00,weatherlink.com 1.10,2013-02-02 11:23:00,
2013-02-02 06:38:00,-999.0,-99.9,30.25,North,-999,-999.0,-999.0,-999,-99.99,,,0.00,weatherlink.com 1.10,2013-02-02 11:38:00,
2013-02-02 06:54:00,-999.0,-99.9,30.25,North,-999,-999.0,-999.0,-999,-99.99,,,0.00,weatherlink.com 1.10,2013-02-02 11:54:00,
2013-02-02 07:09:00,-999.0,-99.9,30.26,North,-999,-999.0,-999.0,-999,-99.99,,,0.00,weatherlink.com 1.10,2013-02-02 12:09:00,
2013-02-02 07:24:00,-999.0,-99.9,30.26,North,-999,-999.0,-999.0,-999,-99.99,,,0.00,weatherlink.com 1.10,2013-02-02 12:24:00,
2013-02-02 07:39:00,-999.0,-99.9,30.26,North,-999,-999.0,-999.0,-999,-99.99,,,0.00,weatherlink.com 1.10,2013-02-02 12:39:00,
2013-02-02 07:54:00,-999.0,-99.9,30.27,North,-999,-999.0,-999.0,-999,-99.99,,,0.00,weatherlink.com 1.10,2013-02-02 12:54:00,
2013-02-02 08:11:00,-999.0,-99.9,30.27,North,-999,-999.0,-999.0,-999,-99.99,,,0.00,weatherlink.com 1.10,2013-02-02 13:11:00,
2013-02-02 08:27:00,-999.0,-99.9,30.27,North,-999,-999.0,-999.0,-999,-99.99,,,0.00,weatherlink.com 1.10,2013-02-02 13:27:00,
2013-02-02 08:44:00,-999.0,-99.9,30.27,North,-999,-999.0,-999.0,-999,-99.99,,,0.00,weatherlink.com 1.10,2013-02-02 13:44:00,
2013-02-02 09:01:00,-999.0,-99.9,30.27,North,-999,-999.0,-999.0,-999,-99.99,,,0.00,weatherlink.com 1.10,2013-02-02 14:01:00,
2013-02-02 09:18:00,-999.0,-99.9,30.26,North,-999,-999.0,-999.0,-999,-99.99,,,0.00,weatherlink.com 1.10,2013-02-02 14:18:00,
2013-02-02 09:35:00,-999.0,-99.9,30.26,North,-999,-999.0,-999.0,-999,-99.99,,,0.00,weatherlink.com 1.10,2013-02-02 14:35:00,
2013-02-02 09:52:00,-999.0,-99.9,30.26,North,-999,-999.0,-999.0,-999,-99.99,,,0.00,weatherlink.com 1.10,2013-02-02 14:52:00,
2013-02-02 10:08:00,-999.0,-99.9,30.26,North,-999,-999.0,-999.0,-999,-99.99,,,0.00,weatherlink.com 1.10,2013-02-02 15:08:00,
2013-02-02 10:26:00,58.6,44.0,30.25,ENE,74,5.0,-999.0,59,-99.99,,,0.00,weatherlink.com 1.10,2013-02-02 15:26:00,
2013-02-02 10:42:00,60.2,44.0,30.25,ENE,77,4.0,-999.0,56,-99.99,,,0.00,weatherlink.com 1.10,2013-02-02 15:42:00,
2013-02-02 10:58:00,61.0,44.0,30.24,East,93,9.0,-999.0,53,-99.99,,,0.00,weatherlink.com 1.10,2013-02-02 15:58:00,
2013-02-02 11:15:00,62.3,43.0,30.23,North,5,5.0,-999.0,50,-99.99,,,0.00,weatherlink.com 1.10,2013-02-02 16:15:00,
2013-02-02 11:31:00,63.2,40.0,30.23,SE,126,6.0,-999.0,43,-99.99,,,0.00,weatherlink.com 1.10,2013-02-02 16:31:00,
2013-02-02 11:47:00,64.2,39.0,30.23,East,93,8.0,-999.0,40,-99.99,,,0.00,weatherlink.com 1.10,2013-02-02 16:47:00,
2013-02-02 12:04:00,64.5,38.0,30.21,SE,136,0.0,-999.0,38,-99.99,,,0.00,weatherlink.com 1.10,2013-02-02 17:04:00,
2013-02-02 12:20:00,67.3,39.0,30.20,ENE,61,0.0,-999.0,35,-99.99,,,0.00,weatherlink.com 1.10,2013-02-02 17:20:00,
2013-02-02 12:37:00,67.5,38.0,30.20,West,277,3.0,-999.0,34,-99.99,,,0.00,weatherlink.com 1.10,2013-02-02 17:37:00,
2013-02-02 12:53:00,67.5,39.0,30.18,West,281,4.0,-999.0,35,-99.99,,,0.00,weatherlink.com 1.10,2013-02-02 17:53:00,
2013-02-02 13:10:00,68.8,40.0,30.17,East,86,1.0,-999.0,35,-99.99,,,0.00,weatherlink.com 1.10,2013-02-02 18:10:00,
2013-02-02 13:26:00,67.9,39.0,30.16,NW,320,4.0,-999.0,35,-99.99,,,0.00,weatherlink.com 1.10,2013-02-02 18:26:00,
2013-02-02 13:43:00,67.6,39.0,30.15,North,11,3.0,-999.0,35,-99.99,,,0.00,weatherlink.com 1.10,2013-02-02 18:43:00,
2013-02-02 14:00:00,68.9,39.0,30.15,SW,229,3.0,-999.0,34,-99.99,,,0.00,weatherlink.com 1.10,2013-02-02 19:00:00,
2013-02-02 14:16:00,69.3,38.0,30.14,NNW,340,6.0,-999.0,32,-99.99,,,0.00,weatherlink.com 1.10,2013-02-02 19:16:00,
2013-02-02 14:31:00,68.6,38.0,30.13,NW,311,4.0,-999.0,33,-99.99,,,0.00,weatherlink.com 1.10,2013-02-02 19:31:00,
2013-02-02 14:49:00,69.4,39.0,30.13,WNW,288,4.0,-999.0,33,-99.99,,,0.00,weatherlink.com 1.10,2013-02-02 19:49:00,
2013-02-02 15:05:00,70.4,39.0,30.12,WNW,290,1.0,-999.0,32,-99.99,,,0.00,weatherlink.com 1.10,2013-02-02 20:05:00,
2013-02-02 15:21:00,69.9,39.0,30.12,NW,312,5.0,-999.0,32,-99.99,,,0.00,weatherlink.com 1.10,2013-02-02 20:21:00,
2013-02-02 15:38:00,69.4,39.0,30.11,West,268,1.0,-999.0,33,-99.99,,,0.00,weatherlink.com 1.10,2013-02-02 20:38:00,
2013-02-02 15:54:00,71.2,40.0,30.10,West,279,7.0,-999.0,32,-99.99,,,0.00,weatherlink.com 1.10,2013-02-02 20:54:00,
2013-02-02 16:10:00,70.0,40.0,30.10,WNW,295,4.0,-999.0,33,-99.99,,,0.00,weatherlink.com 1.10,2013-02-02 21:10:00,
2013-02-02 16:27:00,69.3,40.0,30.10,West,261,5.0,-999.0,34,-99.99,,,0.00,weatherlink.com 1.10,2013-02-02 21:27:00,
2013-02-02 16:44:00,69.7,40.0,30.10,NNW,342,0.0,-999.0,34,-99.99,,,0.00,weatherlink.com 1.10,2013-02-02 21:44:00,
2013-02-02 17:00:00,70.2,42.0,30.10,SW,219,0.0,-999.0,36,-99.99,,,0.00,weatherlink.com 1.10,2013-02-02 22:00:00,
2013-02-02 17:17:00,70.3,40.0,30.10,NNW,345,0.0,-999.0,33,-99.99,,,0.00,weatherlink.com 1.10,2013-02-02 22:17:00,
2013-02-02 17:33:00,70.1,41.0,30.09,WNW,296,5.0,-999.0,35,-99.99,,,0.00,weatherlink.com 1.10,2013-02-02 22:33:00,
2013-02-02 17:48:00,68.9,41.0,30.09,WNW,286,7.0,-999.0,36,-99.99,,,0.00,weatherlink.com 1.10,2013-02-02 22:48:00,
2013-02-02 18:03:00,67.9,40.0,30.10,NW,326,5.0,-999.0,36,-99.99,,,0.00,weatherlink.com 1.10,2013-02-02 23:03:00,
2013-02-02 18:18:00,67.0,40.0,30.10,NW,315,0.0,-999.0,38,-99.99,,,0.00,weatherlink.com 1.10,2013-02-02 23:18:00,
2013-02-02 18:33:00,66.5,41.0,30.10,NNW,328,0.0,-999.0,40,-99.99,,,0.00,weatherlink.com 1.10,2013-02-02 23:33:00,
2013-02-02 18:48:00,65.9,43.0,30.10,NNW,328,0.0,-999.0,43,-99.99,,,0.00,weatherlink.com 1.10,2013-02-02 23:48:00,
2013-02-02 19:03:00,65.1,42.0,30.11,NNW,333,1.0,-999.0,44,-99.99,,,0.00,weatherlink.com 1.10,2013-02-03 00:03:00,
2013-02-02 19:18:00,64.3,43.0,30.11,ENE,66,0.0,-999.0,46,-99.99,,,0.00,weatherlink.com 1.10,2013-02-03 00:18:00,
2013-02-02 19:33:00,63.8,43.0,30.11,ENE,67,0.0,-999.0,47,-99.99,,,0.00,weatherlink.com 1.10,2013-02-03 00:33:00,
2013-02-02 19:48:00,63.4,45.0,30.11,ENE,67,0.0,-999.0,51,-99.99,,,0.00,weatherlink.com 1.10,2013-02-03 00:48:00,
2013-02-02 20:03:00,62.4,45.0,30.11,ENE,67,0.0,-999.0,53,-99.99,,,0.00,weatherlink.com 1.10,2013-02-03 01:03:00,
2013-02-02 20:18:00,61.2,49.0,30.12,East,86,4.0,-999.0,64,-99.99,,,0.00,weatherlink.com 1.10,2013-02-03 01:18:00,
2013-02-02 20:33:00,59.0,48.0,30.13,NE,55,2.0,-999.0,66,-99.99,,,0.00,weatherlink.com 1.10,2013-02-03 01:33:00,
2013-02-02 20:48:00,58.7,46.0,30.12,East,82,2.0,-999.0,63,-99.99,,,0.00,weatherlink.com 1.10,2013-02-03 01:48:00,
2013-02-02 21:03:00,58.7,47.0,30.12,ENE,77,0.0,-999.0,65,-99.99,,,0.00,weatherlink.com 1.10,2013-02-03 02:03:00,
2013-02-02 21:18:00,58.5,46.0,30.13,NE,40,2.0,-999.0,63,-99.99,,,0.00,weatherlink.com 1.10,2013-02-03 02:18:00,
2013-02-02 21:33:00,58.2,46.0,30.12,ENE,65,1.0,-999.0,64,-99.99,,,0.00,weatherlink.com 1.10,2013-02-03 02:33:00,
2013-02-02 21:48:00,57.7,47.0,30.12,NE,56,4.0,-999.0,67,-99.99,,,0.00,weatherlink.com 1.10,2013-02-03 02:48:00,
2013-02-02 22:03:00,57.2,47.0,30.12,ENE,61,3.0,-999.0,68,-99.99,,,0.00,weatherlink.com 1.10,2013-02-03 03:03:00,
2013-02-02 22:18:00,57.0,46.0,30.12,ENE,59,4.0,-999.0,68,-99.99,,,0.00,weatherlink.com 1.10,2013-02-03 03:18:00,
2013-02-02 22:33:00,56.8,46.0,30.12,ENE,67,3.0,-999.0,67,-99.99,,,0.00,weatherlink.com 1.10,2013-02-03 03:33:00,
2013-02-02 22:48:00,56.5,46.0,30.12,NE,54,2.0,-999.0,68,-99.99,,,0.00,weatherlink.com 1.10,2013-02-03 03:48:00,
2013-02-02 23:03:00,56.4,46.0,30.12,NE,54,3.0,-999.0,68,-99.99,,,0.00,weatherlink.com 1.10,2013-02-03 04:03:00,
2013-02-02 23:18:00,56.3,46.0,30.12,NE,54,2.0,-999.0,69,-99.99,,,0.00,weatherlink.com 1.10,2013-02-03 04:18:00,
2013-02-02 23:33:00,56.2,47.0,30.12,NE,54,3.0,-999.0,71,-99.99,,,0.00,weatherlink.com 1.10,2013-02-03 04:33:00,
2013-02-02 23:48:00,56.2,47.0,30.12,NNE,24,3.0,-999.0,71,-99.99,,,0.00,weatherlink.com 1.10,2013-02-03 04:48:00,